GFSSW_sfc_wetblb_021.txt.gz
Wetbulb
58.46 58.56 59.00 59.34 59.72 60.42 60.95 61.18 61.21 61.03 61.21 61.27 61.25 61.71 61.77 61.70 61.10 55.18 50.74 56.64 57.57 63.29 59.72 53.82 52.12 51.36 50.44 49.61 49.95 47.91 38.55 36.35 39.98 40.86 41.69 44.42 43.22 44.14 44.66 43.52 44.13 47.15 44.58 45.08 47.08
57.85 57.77 58.27 58.34 58.79 59.32 59.92 60.28 60.41 60.53 60.77 60.95 60.86 60.89 61.55 60.85 55.87 52.59 59.29 65.69 64.08 62.98 54.43 50.50 49.00 49.64 46.13 47.92 47.97 44.17 38.09 40.72 44.07 42.35 41.43 43.71 43.47 44.43 42.09 42.03 42.86 43.68 43.43 45.89 45.89
56.63 56.64 57.13 57.56 58.03 58.68 59.09 59.28 59.61 60.00 60.26 60.47 60.55 60.73 60.81 59.29 52.21 51.61 63.50 64.93 64.22 61.52 54.29 52.07 50.78 49.89 45.42 46.68 45.93 44.14 40.38 44.49 45.12 45.20 44.77 43.92 42.55 44.96 43.21 41.26 43.06 44.13 43.79 44.28 42.77
56.27 56.19 56.18 56.21 57.26 58.00 58.47 58.54 58.77 59.54 59.68 59.89 60.19 60.62 60.24 55.92 38.85 53.33 62.88 63.22 62.63 55.76 52.83 50.08 48.42 45.99 43.89 43.76 48.08 42.55 46.08 46.57 47.51 46.41 44.64 42.72 44.78 43.59 43.33 44.88 47.15 46.32 46.23 44.65 43.19
56.30 56.03 55.76 55.67 56.22 57.12 57.66 58.01 58.16 58.66 59.39 59.47 60.06 60.38 56.21 48.23 48.90 56.26 60.85 60.32 55.46 53.96 50.17 49.01 46.62 46.02 43.27 45.24 45.80 43.83 44.59 46.90 46.93 46.19 45.05 45.35 44.05 43.02 43.47 45.19 46.41 46.58 45.52 44.15 43.86
56.52 56.14 55.81 55.86 55.83 56.56 56.96 57.35 57.62 58.04 58.51 58.99 59.68 59.85 49.62 43.19 52.81 54.78 52.49 53.19 52.42 50.41 48.70 48.73 47.61 47.99 45.55 45.05 43.08 43.91 44.63 44.81 45.38 45.58 44.99 44.04 41.96 43.20 44.17 45.77 46.10 45.74 44.66 43.32 44.41
56.47 55.99 55.73 55.71 55.76 55.98 56.35 56.75 57.20 57.80 57.97 58.80 59.75 58.02 50.04 46.23 52.66 52.22 51.66 50.30 49.94 49.91 48.07 48.82 48.81 46.44 45.50 44.37 45.81 44.31 41.87 42.29 43.30 44.36 43.43 43.83 40.97 41.40 46.91 44.68 44.67 44.60 44.60 43.67 44.01
56.35 55.72 55.47 55.71 55.97 56.11 56.38 57.04 57.43 57.77 58.18 59.35 60.45 54.49 44.23 53.13 49.90 51.00 50.41 49.36 50.05 49.83 49.54 49.87 49.46 47.67 45.64 46.14 43.79 39.54 37.92 35.80 41.02 42.96 43.24 43.46 38.03 43.85 45.48 43.23 43.76 43.73 42.78 43.18 44.40
56.40 55.64 55.78 56.15 56.16 56.24 56.67 56.95 56.95 57.70 58.92 59.83 53.91 50.05 45.34 54.96 50.39 51.28 50.39 48.81 49.16 49.63 49.00 50.89 48.93 44.84 44.04 39.00 36.01 36.31 32.87 34.95 39.02 43.73 41.76 40.40 37.97 43.00 44.51 42.55 43.05 41.79 43.41 43.67 43.44
56.46 55.78 56.03 56.44 56.49 56.54 56.87 57.21 56.81 56.71 56.41 57.55 55.61 45.35 47.60 46.73 50.85 50.25 49.22 50.30 47.78 47.78 46.60 45.73 43.19 39.37 38.64 36.00 31.28 32.30 32.86 35.87 36.23 39.63 39.13 37.48 38.74 43.12 43.02 41.57 41.96 41.69 41.00 42.47 44.68
56.80 56.21 56.34 56.59 56.82 57.30 55.04 49.77 45.32 44.95 47.76 44.26 45.21 45.07 47.44 49.43 50.80 48.29 48.64 48.00 47.83 45.02 39.06 41.93 36.54 35.30 39.02 39.97 39.37 36.36 35.16 33.92 39.85 42.23 39.91 39.99 40.60 42.23 43.98 41.70 40.83 43.94 44.65 43.43 45.15
57.21 56.61 56.37 56.65 56.95 57.11 52.34 46.51 45.40 45.49 38.58 45.77 45.71 47.33 49.50 49.70 45.67 47.76 48.81 43.77 42.97 38.65 40.32 38.63 35.70 40.84 41.50 40.64 39.76 38.08 36.57 35.20 39.18 41.17 38.78 37.94 38.73 42.53 41.41 43.34 44.39 43.89 43.28 44.39 45.37
57.36 56.69 56.20 56.41 56.59 52.60 48.11 45.99 50.04 48.88 40.05 43.23 45.15 43.95 44.82 48.89 44.84 45.75 46.22 42.97 39.70 37.63 38.75 37.53 38.95 43.52 41.91 40.15 38.29 38.38 35.90 36.94 36.44 38.72 37.19 35.63 34.07 37.29 40.77 43.00 43.89 45.55 45.68 45.97 45.74
57.28 56.68 56.16 56.00 51.94 49.67 46.26 48.46 49.37 47.93 30.87 37.03 40.96 44.65 46.12 45.92 41.06 46.29 46.44 43.95 39.77 38.37 37.62 37.38 42.15 40.98 38.41 37.87 39.83 36.13 39.09 38.36 36.59 32.70 31.61 34.88 30.46 34.79 38.38 39.56 40.86 43.71 43.79 44.64 42.86
56.88 56.55 56.05 55.42 48.75 47.53 48.73 49.00 47.30 44.12 21.74 39.29 40.74 47.65 45.74 40.98 40.74 41.30 43.03 41.38 37.59 37.42 37.61 36.98 36.82 36.78 37.29 39.28 39.37 38.54 38.89 37.19 34.40 31.89 30.16 32.00 29.46 32.49 38.24 36.07 39.03 41.97 43.62 44.14 43.00
56.86 56.60 55.59 53.14 50.07 50.61 50.73 48.38 44.79 31.57 22.79 36.17 40.43 39.35 39.03 40.38 39.95 40.48 40.48 41.77 40.50 37.64 37.76 37.13 38.46 38.78 38.63 37.23 38.70 38.03 34.96 33.59 31.46 29.65 26.36 30.77 31.56 31.81 33.16 37.63 38.33 42.41 43.51 43.72 43.39
57.27 56.62 54.36 54.66 50.24 50.67 50.36 46.63 36.22 27.79 37.49 35.98 36.56 39.03 37.43 37.15 37.70 37.26 35.84 34.09 33.09 29.54 29.55 34.10 36.51 38.75 39.46 35.52 35.49 35.16 32.21 24.88 22.58 21.05 25.60 32.97 29.29 35.97 37.35 38.38 40.04 41.52 42.54 43.36 40.89
56.64 56.38 54.46 54.84 52.64 50.94 48.38 40.97 32.05 37.28 36.44 40.08 38.11 37.77 35.84 38.06 38.01 36.40 34.03 31.43 34.35 32.55 30.69 29.63 30.76 35.31 38.02 38.70 34.72 32.38 35.09 25.43 18.28 22.00 29.17 27.77 25.36 32.09 39.98 42.44 41.33 41.90 42.49 40.34 40.05
55.66 55.12 53.22 54.35 53.75 52.19 44.81 33.83 38.05 40.12 41.78 41.13 41.50 35.08 34.15 36.74 36.64 35.18 32.52 32.02 35.47 36.29 31.82 30.52 30.87 34.86 35.61 36.07 38.57 32.05 29.93 36.06 28.88 15.72 20.12 31.63 32.73 37.06 37.21 38.66 38.62 39.29 37.24 38.25 38.91
52.93 52.52 51.51 53.80 53.20 48.63 39.99 38.80 41.06 43.83 43.77 41.01 36.93 38.91 33.28 33.86 35.06 35.79 33.64 35.92 36.62 38.60 41.48 36.57 31.29 35.89 33.93 33.85 33.68 33.62 34.94 27.56 27.82 19.28 16.26 29.14 29.55 33.29 36.56 38.99 40.29 37.37 37.19 37.32 37.83
50.96 47.97 50.63 53.45 52.11 44.12 34.86 36.43 39.89 44.02 44.42 41.77 40.76 37.65 36.81 36.12 35.58 34.89 34.80 37.27 38.51 39.13 40.23 36.98 34.65 34.77 31.94 30.92 31.87 29.88 30.46 31.74 31.46 29.08 27.04 25.10 30.28 34.41 35.63 36.58 37.99 38.29 37.65 36.91 37.63
48.43 41.17 51.57 52.63 42.08 41.38 38.86 40.32 42.83 42.12 42.62 42.82 38.93 39.79 39.68 40.69 39.41 39.16 38.48 39.42 42.00 40.28 36.28 37.30 33.98 29.26 32.19 35.46 35.17 35.10 34.95 35.22 29.42 27.66 27.35 28.94 30.41 42.04 40.12 37.20 38.22 38.34 38.58 38.26 38.33
43.77 44.57 50.18 50.35 38.04 39.11 39.65 40.17 41.70 41.22 41.93 41.26 40.21 41.08 41.82 37.71 35.32 37.91 38.22 43.80 44.81 42.45 37.70 38.45 31.84 27.80 28.87 34.16 32.03 31.51 33.16 34.73 34.54 31.11 28.43 25.12 28.09 42.03 41.23 38.26 36.31 37.11 37.32 37.78 38.91
40.62 36.16 42.98 44.08 44.74 40.94 38.87 38.53 38.21 42.54 41.22 42.13 41.58 42.10 39.98 38.54 40.51 37.67 37.50 39.83 40.34 39.82 42.24 41.04 33.21 31.12 28.13 31.99 34.99 31.32 32.39 32.44 33.29 28.67 29.00 28.96 31.07 36.40 39.09 40.34 42.14 42.99 43.72 44.34 41.40
37.49 33.85 38.42 33.18 37.89 39.26 40.17 39.11 37.13 36.14 41.31 42.06 39.50 39.48 38.48 35.76 37.22 36.75 38.64 39.41 39.83 40.45 40.15 38.76 31.22 33.18 33.75 34.92 35.68 34.05 33.90 34.56 32.07 33.06 29.46 31.46 31.52 35.05 37.95 39.21 40.69 42.44 42.94 40.64 40.73
33.80 31.70 36.40 32.49 35.63 36.10 36.20 35.59 35.70 36.47 37.18 36.12 35.78 35.06 34.36 33.28 36.12 34.73 36.62 37.34 36.84 34.90 36.89 37.74 32.34 34.47 31.72 33.80 33.44 31.94 33.80 33.85 33.88 33.73 33.56 33.80 33.47 40.57 42.19 43.02 42.40 43.00 43.27 41.40 41.73
36.67 38.57 36.22 30.54 29.18 27.98 28.21 31.80 33.71 34.90 35.87 36.35 33.62 32.24 30.39 32.56 36.81 36.37 35.72 34.91 35.05 35.38 35.61 35.40 32.85 31.71 27.89 32.42 31.47 27.60 32.31 33.26 33.92 35.53 35.23 30.75 35.46 39.91 39.36 40.42 41.15 41.94 42.85 42.07 42.77

GFSSW_sfc_wetblb_024.txt.gz
Wetbulb
58.17 58.30 58.82 59.05 59.28 59.73 60.14 60.35 60.38 60.49 60.71 61.00 61.02 60.92 61.21 61.53 60.84 53.24 48.89 54.58 56.77 63.81 59.57 52.34 51.29 50.20 48.87 47.85 48.45 45.55 36.84 34.47 37.50 39.00 40.58 42.00 41.35 43.02 42.95 42.34 43.00 46.16 42.98 43.95 45.33
56.96 57.22 57.73 58.03 58.45 58.97 59.44 59.67 59.59 59.73 60.17 60.51 60.65 60.63 60.72 60.91 54.16 50.72 58.16 64.67 65.20 64.01 52.51 49.76 47.84 48.26 44.89 46.22 46.64 42.93 35.66 37.71 41.64 41.91 40.52 42.43 42.42 42.16 40.72 40.75 41.79 43.30 42.72 44.09 45.05
56.79 56.81 56.92 56.99 57.40 58.21 58.68 58.88 58.93 59.06 59.48 59.84 60.12 60.24 60.45 58.89 49.27 49.54 63.17 65.90 64.61 62.13 53.01 50.87 49.47 48.36 43.74 44.74 44.78 43.10 39.45 42.67 44.62 44.10 43.84 42.69 41.18 43.44 41.63 40.55 42.72 43.44 43.37 42.62 41.72
56.46 56.51 56.47 56.49 56.74 57.43 58.02 58.22 58.40 58.57 58.88 59.20 59.63 60.14 60.04 54.50 38.19 50.83 63.78 64.32 64.03 54.77 51.48 48.88 47.15 44.56 42.84 42.47 45.91 40.53 44.30 44.24 46.07 45.56 43.68 42.15 42.70 42.01 42.28 46.25 45.71 45.22 44.32 42.51 41.89
56.87 56.73 56.09 55.83 56.08 56.88 57.39 57.67 57.96 58.16 58.39 58.70 59.15 60.14 54.83 45.92 47.16 55.70 62.23 61.62 55.90 52.42 49.16 47.64 45.63 44.96 42.14 42.91 43.73 42.60 43.60 45.26 45.91 45.48 43.77 43.72 43.40 42.29 41.97 44.42 45.28 44.93 43.57 43.16 43.19
56.82 56.41 56.34 55.82 55.72 56.44 56.85 57.17 57.53 58.04 58.06 58.34 58.97 59.67 47.74 39.94 50.92 55.31 53.02 52.93 51.04 49.64 47.80 47.59 46.15 46.63 43.81 43.71 42.62 42.56 43.45 44.07 44.16 44.53 43.77 43.02 41.55 42.36 46.27 43.35 44.32 44.48 43.02 42.39 43.75
56.99 56.51 56.27 56.36 56.08 56.38 56.70 56.94 57.17 57.55 57.67 58.26 59.14 57.29 49.11 44.70 51.12 52.33 51.12 49.87 49.57 48.86 46.40 46.92 46.73 44.89 43.53 42.62 44.68 43.73 41.23 41.98 43.77 43.15 42.44 42.23 39.93 39.94 46.86 42.73 43.66 43.75 42.99 42.75 43.46
57.02 56.47 56.19 56.47 56.76 56.97 57.37 57.67 57.71 57.78 57.61 58.38 59.80 53.26 42.83 51.29 49.28 49.55 49.31 48.48 49.06 48.90 48.28 48.53 48.00 45.68 43.48 44.81 42.72 38.68 37.33 34.96 40.01 41.03 41.53 42.17 37.68 43.39 44.26 43.05 43.24 42.40 42.96 41.99 43.74
56.92 56.44 56.26 56.62 56.77 56.95 57.33 57.59 57.63 57.70 57.95 59.45 52.59 47.74 43.67 53.75 48.01 49.82 48.89 47.59 48.16 48.60 48.39 50.54 47.02 42.58 42.67 37.74 34.46 33.22 31.00 32.60 38.01 42.01 40.84 39.20 37.56 43.68 42.95 41.33 41.77 42.35 41.01 43.27 43.67
57.10 56.61 56.44 56.65 56.83 57.07 57.50 57.82 56.63 55.63 55.92 56.77 54.46 44.31 46.03 45.60 49.36 48.86 47.76 48.96 46.21 46.62 44.91 44.12 41.27 37.69 37.43 34.59 29.80 30.91 30.41 33.38 34.50 38.37 37.39 36.62 37.95 42.77 42.76 40.77 40.15 40.81 41.15 40.56 43.31
57.44 57.06 56.95 56.85 57.12 57.84 55.28 48.62 43.69 42.65 46.56 43.12 43.37 43.35 45.58 48.42 49.42 47.38 48.04 47.46 46.92 42.82 37.11 39.88 35.40 33.54 38.12 38.34 39.38 33.31 32.71 32.41 36.62 39.31 37.33 37.12 39.18 41.68 44.28 42.16 40.16 41.30 43.36 43.42 41.39
57.73 57.45 57.22 57.03 57.28 57.48 49.93 45.76 43.76 44.39 37.66 44.36 43.83 45.67 47.79 48.39 44.18 45.90 47.96 42.88 41.79 37.39 38.49 36.13 33.50 39.19 39.49 38.30 37.24 36.48 35.17 35.10 38.76 40.66 36.61 37.66 38.07 41.36 42.09 43.59 44.30 43.40 43.91 44.02 45.43
57.68 57.27 56.98 56.82 56.86 51.77 46.88 44.93 48.78 47.98 38.04 41.21 43.45 42.26 42.90 47.25 43.52 44.36 45.59 41.78 38.52 36.39 36.80 36.43 37.87 41.26 39.21 36.96 36.23 35.20 34.12 35.53 35.02 36.55 35.66 34.18 35.13 36.10 39.02 42.71 44.55 44.91 45.11 45.63 44.94
57.57 57.14 56.79 56.50 51.55 48.85 45.83 47.64 48.42 46.29 29.75 35.27 40.06 42.13 44.48 45.13 39.13 44.96 44.13 42.27 37.75 36.79 35.87 35.41 40.46 39.42 36.80 35.92 37.63 34.33 38.27 37.72 36.03 31.14 30.14 33.62 29.58 34.01 36.54 38.42 40.16 42.16 43.29 44.23 45.08
57.34 57.07 56.82 55.94 48.84 47.92 48.34 48.28 46.66 41.52 26.56 38.71 39.72 46.14 44.82 39.97 38.88 39.89 41.89 40.93 36.24 36.27 36.13 35.20 35.29 35.21 35.38 38.13 38.21 37.00 37.33 35.50 32.75 29.72 28.18 30.30 27.66 32.13 37.08 36.78 38.53 41.84 42.28 43.66 45.26
57.51 57.21 56.57 53.62 50.18 51.08 50.26 47.20 43.33 33.58 28.09 35.45 39.08 38.07 38.13 38.95 38.75 39.20 39.51 41.04 39.20 36.18 36.23 36.52 37.56 37.69 37.27 37.41 37.34 36.70 34.12 32.91 29.86 28.93 27.31 30.89 30.58 30.61 31.92 36.57 37.99 41.32 43.17 43.87 44.75
56.20 56.96 54.83 55.25 50.57 51.01 50.02 45.98 39.45 31.83 37.96 35.41 35.39 37.73 35.88 35.69 36.33 36.45 35.16 34.34 33.07 29.33 28.88 32.00 34.18 36.56 38.34 33.99 34.67 34.74 31.41 24.33 21.68 20.72 24.98 31.40 28.23 35.46 35.87 37.79 39.34 40.60 41.20 43.00 44.13
54.47 56.27 54.44 55.64 52.76 51.53 49.76 44.04 34.55 38.24 35.58 39.60 37.08 35.82 34.70 36.78 36.64 35.37 32.43 30.57 33.61 30.84 28.97 27.88 29.91 33.94 36.08 37.05 33.57 32.59 33.43 24.88 16.68 22.50 29.13 26.45 25.16 32.99 38.73 40.62 40.60 40.77 41.96 42.50 39.68
54.00 55.19 53.55 54.33 52.97 52.01 46.15 37.48 38.03 41.29 41.92 39.60 40.65 34.86 32.67 35.28 35.09 33.81 31.04 30.77 34.26 35.08 31.14 28.14 30.15 33.94 35.46 35.45 37.50 30.69 28.66 36.03 25.51 12.81 17.91 28.05 32.15 37.74 35.85 37.65 38.18 39.08 39.73 36.76 37.73
50.12 51.91 51.84 54.17 53.45 49.84 41.68 39.68 41.22 43.83 44.44 43.49 38.07 38.73 31.63 33.49 34.20 35.06 34.51 34.30 34.56 36.11 39.15 35.31 30.40 35.61 32.51 33.19 32.77 33.52 34.62 26.86 26.20 17.95 14.93 25.52 26.81 31.90 36.50 38.44 38.40 37.66 37.77 37.91 37.63
48.96 45.13 49.64 54.08 51.95 44.77 37.08 38.80 40.97 45.16 44.87 41.82 39.83 39.06 37.83 36.94 37.08 36.91 36.93 36.44 37.27 37.85 38.53 36.49 33.87 33.23 31.31 30.72 33.35 28.77 28.68 29.37 30.12 29.07 26.12 24.83 29.45 40.21 38.10 36.59 35.25 37.97 38.01 37.53 37.41
46.81 38.94 51.07 52.55 42.03 42.09 39.28 41.12 43.33 42.49 44.23 43.41 41.77 41.22 39.47 39.77 38.83 39.22 38.81 40.78 39.13 38.92 35.59 37.82 34.72 30.32 32.64 37.03 33.15 32.65 33.09 34.00 28.96 27.29 29.66 30.00 30.28 42.06 42.03 41.51 41.42 41.86 38.77 38.02 37.22
42.34 43.33 50.93 50.32 37.03 38.65 40.34 40.04 42.14 41.20 41.41 41.11 40.14 40.61 41.60 38.63 35.35 38.15 39.16 43.65 44.32 41.76 38.16 38.08 34.12 29.22 29.73 33.22 35.82 33.44 35.44 34.47 34.94 33.48 28.98 26.24 29.24 42.08 42.08 41.19 41.17 36.48 38.12 40.60 39.07
38.96 33.87 42.28 44.60 44.15 39.77 37.60 37.78 37.65 41.56 40.62 42.02 40.89 41.25 38.84 36.90 39.33 36.59 37.52 41.13 40.92 41.24 43.45 42.14 36.73 32.96 28.82 32.59 34.43 29.84 32.31 34.59 33.21 28.54 29.23 29.18 31.32 36.53 39.23 40.01 41.73 41.96 42.68 42.97 41.71
35.97 32.91 37.81 33.90 37.27 38.50 39.26 37.93 35.64 35.20 40.07 40.98 39.02 38.97 36.39 34.15 34.39 34.41 34.88 33.01 35.68 41.01 39.49 38.79 32.63 34.25 34.72 35.40 35.71 35.17 34.48 34.92 32.77 32.65 28.54 31.67 32.21 35.81 38.67 40.10 42.07 42.48 43.02 40.37 40.74
31.93 31.34 33.52 32.54 33.30 34.02 36.07 34.90 35.19 36.40 37.18 36.04 35.80 31.35 33.15 29.36 31.25 28.73 32.44 30.56 29.65 33.62 32.26 33.54 29.51 32.68 30.78 34.41 33.31 31.37 33.35 34.00 33.65 34.12 34.19 34.54 33.85 40.67 41.95 42.90 42.10 42.94 43.47 42.74 43.09
34.35 37.42 34.55 29.23 28.84 26.27 26.38 29.92 30.95 30.52 33.54 36.32 30.60 27.39 27.38 29.12 30.45 30.75 31.32 30.99 30.94 29.29 28.04 29.12 28.96 26.66 22.80 30.21 30.70 27.10 32.33 32.98 33.61 35.30 34.86 30.90 36.07 40.18 39.44 40.47 40.80 41.15 39.96 36.52 35.38

GFSSW_sfc_wetblb_030.txt.gz
Wetbulb
58.22 58.39 58.57 58.72 58.78 59.10 59.49 59.78 59.75 59.70 59.79 60.02 60.23 60.37 60.42 60.53 59.88 52.03 46.58 53.56 54.97 63.63 57.86 50.55 49.21 47.62 46.82 45.60 45.30 41.79 36.06 32.25 35.17 35.06 38.81 40.20 38.81 41.17 41.51 42.18 41.84 44.12 42.39 43.28 42.95
57.46 57.58 57.92 58.08 58.06 58.15 58.67 59.04 59.01 59.13 59.39 59.54 59.68 59.89 60.07 60.05 51.43 48.05 56.38 62.64 64.84 62.12 49.85 48.21 46.28 46.15 43.40 43.39 44.09 41.08 33.87 35.90 38.51 38.09 39.43 40.22 40.20 42.39 41.89 41.66 40.17 42.17 43.09 42.22 43.12
57.33 57.49 57.68 57.78 57.79 57.98 58.21 58.41 58.42 58.45 58.78 58.91 59.14 59.46 59.68 57.77 44.66 44.34 62.33 63.07 65.38 59.99 50.50 48.00 47.15 45.95 41.10 42.71 42.74 40.09 38.24 38.95 40.80 41.40 41.81 40.99 39.72 41.52 39.53 39.73 41.63 42.66 43.84 41.89 41.44
57.40 57.36 57.41 57.49 57.58 58.00 58.26 58.28 58.29 58.28 58.33 58.36 58.75 59.19 59.64 51.69 38.05 45.40 64.07 64.75 64.68 51.72 49.43 47.12 45.16 42.22 40.22 40.25 43.17 39.46 42.29 41.75 43.08 43.19 41.66 40.36 41.41 40.44 41.01 46.21 45.02 44.62 43.54 41.64 41.02
57.65 57.57 57.48 57.40 57.41 57.84 58.27 58.46 58.41 58.26 58.07 58.08 58.37 59.14 52.17 41.58 44.27 55.33 63.17 62.77 52.92 49.65 47.81 45.53 43.49 42.41 39.62 39.79 40.17 39.37 40.90 43.16 43.52 42.99 42.48 42.01 42.41 41.45 40.44 44.70 43.91 42.87 42.50 42.35 41.60
57.64 57.45 57.51 57.65 57.55 57.79 58.13 58.41 58.50 58.54 58.21 58.13 58.14 58.67 45.28 38.78 48.11 56.36 55.48 51.32 49.97 47.97 45.90 45.46 44.13 44.34 40.75 40.51 40.95 39.66 40.61 41.39 41.93 42.31 42.45 41.82 43.49 40.38 43.46 42.42 43.97 42.34 41.90 41.53 41.37
57.85 57.49 57.34 57.58 57.93 57.89 58.11 58.31 58.42 58.67 58.42 58.39 58.09 56.18 44.15 43.61 49.46 52.63 51.61 48.72 49.03 47.78 44.82 45.43 45.76 43.69 41.50 38.79 41.37 40.26 38.56 38.90 38.93 40.17 40.23 40.49 39.20 38.05 45.07 40.87 42.52 42.09 41.15 41.65 41.16
57.84 57.31 57.13 57.43 57.76 57.97 58.39 58.64 58.75 58.66 58.43 58.42 57.93 50.83 40.44 47.63 48.32 48.70 47.68 46.05 46.64 46.61 46.33 46.34 45.71 43.84 41.34 40.95 39.14 34.63 34.48 31.89 36.47 38.40 38.67 40.13 34.66 42.33 41.93 39.97 41.15 40.79 40.45 40.12 41.63
57.62 57.19 57.31 57.62 57.67 57.84 58.18 58.41 57.64 58.61 57.76 58.39 51.24 44.28 40.61 51.58 46.17 47.49 46.76 45.77 46.25 45.55 45.40 48.71 45.18 40.81 39.20 34.57 32.46 30.13 28.63 29.98 33.54 39.21 38.34 37.46 34.10 40.71 40.86 38.21 40.04 41.01 41.12 42.14 42.42
57.59 57.33 57.50 57.74 57.83 58.00 58.17 57.34 56.31 55.40 56.37 56.27 52.31 41.20 43.90 43.46 46.66 46.15 45.39 46.90 44.58 44.36 43.10 41.97 39.20 35.84 34.05 32.80 28.21 29.26 27.37 29.77 30.37 35.99 34.40 34.53 34.72 39.15 42.50 38.78 42.00 43.33 43.25 42.20 43.17
57.85 57.70 57.79 57.84 58.14 58.51 54.43 45.92 42.01 40.42 44.46 42.12 42.52 40.71 42.69 45.50 47.01 44.50 46.26 46.04 44.12 40.76 36.13 37.34 33.62 32.14 36.97 35.58 34.84 30.06 29.51 28.70 33.41 37.82 33.27 35.60 36.52 38.85 41.30 41.47 41.63 42.42 42.60 42.88 44.31
58.14 57.97 57.93 57.81 58.06 57.56 47.32 43.47 42.11 41.97 37.91 42.73 42.99 44.24 45.96 45.95 41.96 43.17 46.32 41.65 39.59 35.80 35.95 33.55 30.64 36.79 36.16 35.30 34.64 33.32 31.77 31.84 35.67 38.38 33.18 33.97 34.89 38.51 40.23 40.96 42.52 42.97 43.60 44.11 43.96
58.20 57.81 57.68 57.62 57.32 51.31 45.34 43.36 47.42 45.51 36.44 40.39 41.79 40.54 41.71 45.40 41.55 42.55 44.26 40.10 37.56 34.48 34.15 34.41 35.47 38.16 36.44 33.73 33.55 30.91 29.78 32.93 31.82 33.72 33.05 31.33 31.06 33.31 37.20 39.29 41.72 43.01 44.01 44.20 43.63
58.32 57.88 57.78 57.40 53.09 48.27 45.81 46.12 47.57 42.86 35.47 37.14 37.81 40.42 42.03 41.95 37.28 42.24 42.11 40.83 35.83 35.32 34.05 33.33 36.98 36.35 32.66 32.96 34.48 32.00 35.25 34.69 33.14 28.75 25.84 31.77 26.01 30.71 38.44 38.91 37.17 40.29 40.90 40.41 40.34
57.33 57.62 57.79 57.01 50.15 50.55 48.83 47.32 46.33 40.94 31.07 39.26 37.00 43.71 42.00 37.33 37.22 38.17 40.30 38.54 34.04 33.86 33.77 33.68 33.08 32.33 32.28 34.61 35.05 33.14 34.51 32.66 29.82 27.37 25.75 25.53 24.02 29.88 32.73 32.89 36.42 38.26 39.25 39.69 40.90
54.97 56.09 56.92 54.47 52.03 51.53 50.01 47.88 45.56 38.65 32.06 37.36 36.98 35.95 36.17 36.87 36.66 37.61 37.72 39.30 37.04 34.24 33.25 33.62 34.81 35.42 35.38 34.73 35.83 34.78 31.68 30.34 27.13 26.75 22.85 29.05 27.63 29.22 30.81 34.51 34.64 36.85 39.62 40.09 39.89
52.99 54.06 55.57 55.50 51.83 51.71 52.11 50.32 39.40 33.04 42.76 36.11 33.52 35.23 33.80 33.11 34.42 34.35 33.63 32.62 31.58 27.68 26.40 29.19 32.16 34.26 35.90 31.79 31.89 32.12 28.91 23.31 21.04 19.79 24.54 27.15 26.03 33.67 34.67 37.41 37.35 40.29 40.60 38.52 38.48
51.66 53.03 54.98 55.46 53.27 53.33 52.11 45.87 32.05 38.72 39.91 40.37 37.30 36.19 34.97 35.54 36.29 34.82 31.59 29.73 32.31 29.87 27.04 27.58 30.20 32.42 34.25 34.87 32.68 29.92 30.29 22.98 15.78 18.69 27.59 25.57 26.81 33.87 36.87 38.11 38.50 36.95 36.42 37.89 38.12
50.91 51.65 52.32 54.42 53.45 53.10 47.94 37.97 36.68 40.13 42.63 41.18 41.26 38.05 35.36 35.22 37.19 35.52 31.69 30.49 33.59 34.70 32.10 26.68 28.03 31.61 33.37 33.19 35.06 28.60 27.68 31.61 25.72 16.14 17.08 29.12 32.64 38.70 37.70 36.42 34.66 36.22 35.19 37.40 36.72
44.18 46.49 47.68 54.08 53.55 50.87 43.28 39.18 39.78 43.74 43.25 42.93 38.23 40.51 35.42 34.98 34.15 33.02 33.00 33.47 33.31 35.40 37.50 33.42 27.84 32.30 31.25 32.87 31.97 31.65 32.13 25.53 23.98 19.86 15.65 25.88 25.72 31.19 35.92 36.85 37.31 36.27 35.93 36.50 37.30
44.49 41.41 45.74 53.36 52.88 46.22 36.34 38.76 41.11 44.70 44.68 41.43 40.28 39.20 38.26 37.52 37.14 36.84 37.72 38.34 34.87 35.20 35.95 35.31 33.20 32.80 32.44 29.12 30.12 27.87 29.03 28.17 29.01 28.26 24.47 23.10 27.21 38.86 36.46 35.77 35.25 38.43 40.45 38.32 38.64
42.24 33.36 48.42 53.32 40.73 41.55 36.84 38.66 41.59 41.75 43.90 42.26 42.64 41.57 39.68 39.76 38.05 37.65 37.42 39.66 42.42 40.79 38.19 36.84 34.92 30.01 32.17 37.23 34.67 34.92 35.05 34.57 28.71 25.88 26.91 28.21 28.02 40.96 40.54 39.95 39.13 40.05 41.95 41.54 37.12
38.09 37.38 49.42 49.54 34.42 35.92 38.69 38.30 39.98 38.52 39.06 39.75 38.51 40.04 40.12 36.99 34.02 37.18 38.16 40.67 39.61 39.60 37.43 38.14 33.70 28.28 29.21 30.78 32.51 29.98 33.33 33.78 33.51 32.67 27.91 24.76 27.95 38.99 40.05 40.12 41.04 37.48 32.22 34.69 34.58
36.46 29.03 34.81 44.15 41.76 37.28 35.60 35.51 35.22 40.96 40.38 40.41 39.51 40.41 37.82 36.05 38.20 35.47 35.96 38.06 36.29 36.86 40.34 39.51 33.90 30.80 26.21 28.82 30.50 28.73 30.02 30.45 29.28 23.94 25.78 26.08 30.47 34.88 35.39 32.57 28.30 30.38 30.47 30.44 30.48
32.95 29.55 33.24 32.06 32.66 35.11 36.30 35.90 33.45 32.79 37.78 38.96 36.79 36.42 34.84 32.89 33.95 32.86 32.13 30.41 33.42 35.03 34.69 33.30 25.20 28.45 27.35 27.51 27.69 26.25 25.72 26.18 25.12 27.01 23.30 26.21 27.74 29.12 25.36 25.36 28.83 28.74 28.47 28.02 28.37
28.71 30.23 32.85 28.41 29.92 28.58 31.02 30.93 30.96 32.80 35.17 32.91 34.04 33.84 33.64 32.22 30.18 28.32 26.14 27.63 26.42 28.95 27.03 28.66 21.13 23.51 19.45 24.56 24.14 21.42 23.38 24.47 25.46 25.73 26.40 28.33 26.88 25.23 26.31 26.92 27.27 27.50 26.92 26.32 27.39
31.29 33.99 32.84 26.89 27.25 25.76 25.77 27.98 26.53 28.20 29.70 31.22 28.33 27.56 26.66 29.41 28.80 29.19 29.83 29.29 28.04 24.80 22.75 22.03 18.92 10.61 14.50 21.76 18.24 12.12 18.42 22.25 22.82 23.04 21.88 20.01 21.45 24.34 23.08 23.86 25.03 26.13 27.41 25.64 25.99

GFSSW_sfc_wetblb_033.txt.gz
Wetbulb
58.18 58.42 58.73 58.81 58.81 58.94 59.22 59.43 59.33 59.32 59.54 59.75 59.86 60.05 60.18 60.36 59.77 52.44 46.42 52.86 54.67 64.09 57.66 50.78 50.09 48.91 49.03 47.99 47.37 45.06 38.80 35.45 38.20 37.49 40.71 43.22 42.87 44.30 45.21 45.19 45.11 46.35 46.67 47.73 46.42
57.89 58.10 58.32 58.40 58.45 58.67 58.89 58.92 58.88 58.88 59.02 59.20 59.38 59.61 59.83 59.97 51.78 47.58 55.91 61.10 64.93 61.68 50.06 48.38 46.93 47.40 45.03 45.75 46.21 43.01 37.04 38.05 40.46 39.90 41.31 42.90 43.06 44.49 44.03 43.98 43.70 45.04 46.36 45.43 46.26
57.78 57.88 58.04 58.09 58.22 58.56 58.84 58.93 58.76 58.66 58.62 58.59 58.78 59.23 59.43 57.54 44.45 44.15 62.23 62.49 65.00 58.68 49.69 48.45 47.66 46.85 43.83 44.85 44.52 42.02 39.39 40.43 41.55 41.25 42.49 42.76 41.71 44.26 42.96 42.43 44.37 44.42 46.86 44.90 44.45
57.71 57.67 57.87 57.97 58.08 58.43 58.78 58.88 58.89 58.76 58.64 58.41 58.48 58.79 59.47 51.24 38.55 44.20 63.69 64.10 64.30 51.16 49.41 47.24 46.21 43.95 42.08 41.52 44.05 40.31 42.51 42.07 43.95 43.75 42.76 42.05 43.14 42.33 42.81 47.52 47.95 46.33 47.71 45.19 43.95
57.98 57.82 57.79 57.77 58.00 58.38 58.75 58.97 59.06 58.99 58.67 58.45 58.34 58.70 51.17 40.83 43.91 56.45 63.74 63.95 51.41 49.55 47.89 45.96 44.37 43.06 40.79 40.69 41.69 40.66 41.67 43.41 43.63 43.29 42.81 42.68 42.71 42.72 41.48 45.69 46.94 44.78 43.98 44.64 44.31
58.00 57.74 57.71 57.83 58.04 58.43 58.77 59.01 59.13 59.21 58.76 58.59 58.27 58.07 43.61 38.71 48.63 57.85 56.40 52.52 49.91 48.07 46.18 46.01 44.83 44.71 41.63 40.99 41.08 40.86 41.53 41.79 42.11 42.48 42.34 42.36 43.59 42.23 43.93 45.58 44.48 43.75 44.49 43.69 43.74
58.23 57.83 57.60 57.72 58.28 58.42 58.68 58.98 59.09 59.20 58.81 58.82 58.26 55.08 42.19 42.19 49.80 53.31 51.48 49.30 48.90 47.50 45.12 45.52 45.59 44.49 42.69 40.14 42.07 40.90 39.25 39.16 39.50 40.43 40.56 40.96 39.74 37.88 45.17 42.56 43.74 43.30 43.40 42.71 43.15
58.10 57.53 57.45 57.64 58.11 58.45 58.90 59.18 59.05 58.32 58.42 58.51 58.37 49.97 39.57 47.10 48.95 49.31 47.30 45.96 47.18 46.85 46.07 46.22 46.08 44.47 42.28 42.19 39.89 36.51 35.57 33.31 38.05 38.65 39.21 41.05 35.57 42.17 42.14 41.22 42.29 42.48 42.16 42.35 43.68
57.68 57.25 57.49 57.84 57.98 58.22 58.60 58.81 57.70 59.44 58.44 58.53 49.97 42.37 39.87 50.96 45.99 47.27 46.04 45.30 45.94 45.64 46.28 47.71 45.78 41.21 40.18 35.86 33.36 32.55 30.32 30.58 34.13 38.85 38.41 38.77 35.70 41.07 40.98 40.10 41.55 42.43 43.63 44.24 45.26
57.60 57.42 57.64 57.94 58.07 58.33 58.46 56.14 55.92 55.12 56.49 56.29 51.29 39.92 42.64 42.51 46.25 46.05 45.54 46.49 44.11 44.31 43.47 42.50 38.80 36.14 34.22 33.40 29.61 30.23 28.55 30.01 31.20 37.36 35.48 35.37 36.03 40.01 41.45 39.97 41.30 42.67 43.99 44.52 45.01
57.96 57.86 57.97 58.01 58.32 58.83 52.34 44.78 44.03 42.48 43.61 41.04 41.16 39.87 42.16 44.35 45.99 44.05 45.95 45.40 43.36 40.62 36.50 37.99 33.99 32.23 36.45 35.61 34.61 31.54 30.58 29.81 32.65 37.66 34.28 36.71 36.71 38.36 40.89 40.11 41.24 42.65 42.92 43.27 43.37
58.31 58.25 58.17 58.07 58.32 57.27 46.90 42.94 40.94 42.26 38.13 43.39 42.62 43.36 44.71 45.10 41.34 42.41 45.71 41.59 39.57 35.83 35.69 33.86 30.90 36.37 36.33 35.06 34.26 33.22 31.73 31.57 34.96 37.29 33.62 33.78 34.96 38.97 40.78 41.37 42.33 42.56 43.03 42.17 42.62
58.52 58.31 58.13 57.91 57.55 51.78 44.97 43.43 46.92 44.88 36.89 41.25 41.48 39.96 41.58 44.77 40.70 41.47 44.07 39.72 36.85 33.85 33.96 33.87 35.64 37.51 35.87 33.47 33.27 30.89 30.35 32.41 31.47 33.22 33.67 31.75 31.97 33.85 37.96 38.77 40.60 42.40 42.55 42.68 42.58
58.15 58.04 58.11 58.10 53.26 48.36 45.01 45.83 48.10 43.19 35.96 38.24 37.62 39.81 40.94 41.14 36.59 41.59 41.79 40.01 35.47 34.87 33.66 32.79 36.26 35.64 32.29 32.31 33.86 30.65 34.39 34.08 32.10 29.64 26.93 32.61 25.98 34.16 40.16 39.62 40.47 39.58 39.43 39.95 40.42
55.97 57.37 57.89 57.61 52.72 51.56 47.63 47.55 47.45 42.18 30.81 38.56 36.06 42.97 41.17 36.93 36.89 37.79 39.82 38.11 33.37 33.27 33.97 33.08 32.31 31.82 31.90 33.92 34.47 32.86 33.79 32.35 31.10 28.62 27.43 27.36 25.98 30.31 33.58 36.82 37.70 39.85 41.00 40.69 41.48
54.09 54.97 56.46 54.63 52.65 50.69 49.89 49.27 46.13 39.21 32.73 38.04 36.31 35.76 35.30 36.04 35.86 37.18 37.20 38.99 36.77 33.84 32.23 33.07 34.12 34.74 35.05 34.33 35.09 34.37 31.80 30.65 28.18 27.54 22.28 28.56 28.48 29.28 32.15 35.06 36.98 38.69 40.57 39.64 39.95
52.16 53.06 55.69 55.58 51.92 51.39 52.12 51.51 39.99 33.99 43.29 37.36 33.90 36.62 33.89 33.33 34.37 34.63 33.32 32.10 32.07 27.94 27.21 30.52 32.05 33.98 35.64 32.22 32.85 32.94 29.66 24.27 22.75 21.18 25.60 28.08 25.92 33.05 35.65 39.32 37.25 38.19 39.04 39.09 38.87
50.83 52.60 54.99 55.37 52.80 53.57 52.55 45.67 33.00 38.54 39.64 42.67 41.49 38.72 34.88 36.24 35.42 34.71 31.42 30.24 33.68 32.72 29.43 26.33 29.58 32.32 34.64 35.96 34.14 31.54 32.22 27.35 19.49 20.27 28.41 25.89 25.32 32.23 37.46 38.00 37.81 37.34 37.67 38.49 41.29
49.93 51.19 49.76 53.81 53.69 53.44 48.38 38.17 35.73 37.73 41.71 41.00 40.86 36.90 35.54 36.35 38.53 36.91 33.94 32.87 35.54 35.67 34.78 32.25 28.75 31.33 33.50 34.45 36.28 30.76 29.18 33.37 27.80 15.94 19.62 30.10 34.23 37.69 35.67 36.74 37.83 36.69 37.58 38.25 37.91
43.71 43.95 45.47 52.34 53.85 51.22 43.29 37.70 40.18 43.85 43.39 42.90 38.07 39.87 35.29 36.13 34.91 35.43 34.10 33.36 33.47 34.82 37.01 34.13 29.72 34.39 32.95 32.21 32.37 32.66 33.74 27.77 26.81 20.71 20.91 27.70 29.36 31.30 35.03 36.66 36.27 36.30 33.02 33.59 34.26
43.34 38.41 44.48 53.52 53.03 45.33 34.55 33.67 39.32 43.75 44.09 41.10 39.90 38.79 38.19 36.90 37.81 36.70 37.42 37.12 34.76 33.95 36.32 37.81 33.07 31.78 33.58 31.64 32.37 33.62 29.99 30.04 29.36 28.37 24.22 22.83 27.47 35.52 34.68 32.97 31.55 33.25 34.66 32.71 32.22
41.61 30.73 46.05 53.14 40.86 39.43 36.36 37.27 40.50 39.54 42.44 41.94 41.60 40.36 38.24 38.51 37.17 36.73 36.71 39.12 43.15 42.05 38.33 39.21 35.20 30.81 32.52 35.47 35.81 34.82 33.93 33.54 28.13 26.18 28.07 28.26 28.06 39.78 36.81 33.94 31.68 30.67 30.36 30.41 30.79
37.58 35.20 46.28 49.46 33.05 34.58 37.81 36.76 38.67 37.04 37.54 38.40 37.84 39.33 38.54 35.82 32.45 35.18 36.30 38.81 39.53 39.49 38.26 38.69 33.47 27.99 26.73 29.56 33.40 31.70 34.13 33.41 30.78 30.81 26.87 24.81 27.77 36.23 35.94 35.11 29.50 27.87 28.05 28.90 29.56
35.94 27.75 34.05 43.64 39.92 36.33 33.69 33.42 34.10 38.03 38.24 39.19 38.01 38.48 36.01 35.28 36.84 34.74 36.10 37.65 36.54 36.87 40.94 39.52 33.80 30.77 25.25 28.37 29.27 28.26 27.84 28.04 27.02 22.68 23.47 23.67 25.71 30.00 31.77 27.19 28.14 27.86 28.53 28.38 28.44
30.32 27.53 31.70 25.41 31.48 34.87 35.84 32.81 30.48 30.91 35.82 35.86 34.25 35.23 33.23 31.58 30.15 30.49 32.04 30.74 32.31 32.65 32.08 32.85 27.81 27.82 31.26 28.12 26.01 25.15 24.83 25.16 23.28 24.37 20.08 23.04 23.99 28.16 25.15 24.42 25.57 26.94 27.90 28.14 26.70
28.57 28.52 31.92 28.36 30.62 31.00 31.30 28.52 29.35 30.68 32.01 30.18 31.52 30.24 32.60 32.09 31.32 28.73 26.85 27.82 26.46 28.20 27.35 29.15 22.43 23.49 16.80 24.68 25.36 21.85 21.89 22.03 22.29 22.43 21.85 22.92 22.38 25.06 26.21 25.92 24.88 25.05 25.32 27.02 25.63
29.79 31.71 31.41 25.25 26.39 25.23 25.55 27.45 26.22 28.16 27.97 29.41 27.87 25.97 25.36 29.11 29.31 29.64 29.45 28.98 28.13 25.83 22.67 22.95 21.48 12.99 15.74 21.66 16.10 9.94 18.02 22.75 21.84 20.41 20.31 18.09 20.80 23.36 22.49 23.67 24.18 23.69 24.47 26.29 25.12